Tracking 28125 objects as of 2-Oct-2023
HD Live streaming from Space Station
objects crossing your sky now

SL-8 DEB

Track SL-8 DEB now!
10-day predictions


NORAD ID: 21181
Int'l Code: 1991-009AU
Perigee: 1,423.8 km
Apogee: 1,753.8 km
Inclination: 73.9 °
Period: 117.8 minutes
Semi major axis: 7959 km
RCS: 0.0238 m2 (small)
Launch date: February 12, 1991
Source: Commonwealth of Independent States (former USSR) (CIS)
Launch site: PLESETSK MISSILE AND SPACE COMPLEX (PKMTR)

Note: This is SATELLITE DEBRIS
Your satellite tracking list
Your tracking list is empty




NASA's NSSDC Master Catalog

Two Line Element Set (TLE):
1 21181U 91009AU  23274.51976278 -.00000003  00000-0  11088-3 0  9990
2 21181  73.9492 200.9086 0207307 283.2096 254.7456 12.22499372453166
Source of the keplerian elements: AFSPC